Change the Weather History Date:

Saturday, December 28, 2013

  Actual Average Record
Temperature  
Mean Temperature 63 °F 54 °F  
Max Temperature 72 °F 66 °F 82 °F (1942)
Min Temperature 53 °F 43 °F 21 °F (2010)
Degree Days  
Heating Degree Days 2 11  
Month to date heating degree days 154 262  
Since 1 July heating degree days 247 423  
Cooling Degree Days 0 0  
Month to date cooling degree days 55 24  
Year to date cooling degree days 2880 2640  
Growing Degree Days 12 (Base 50)    
Moisture  
Dew Point 59 °F    
Average Humidity 89    
Maximum Humidity 100    
Minimum Humidity 77    
Precipitation  
Precipitation 0.01 in 0.08 in 1.56 in (1920)
Month to date precipitation 2.47 2.15  
Year to date precipitation 45.76 47.08  
Snow  
Snow 0.00 in 0.00 in 0.00 in ()
Month to date snowfall 0.0 0.0  
Since 1 July snowfall 0.0 0.0  
Snow Depth 0.00 in    
Sea Level Pressure  
Sea Level Pressure 30.16 in    
Wind  
Wind Speed 8 mph (ENE)    
Max Wind Speed 14 mph    
Max Gust Speed 19 mph    
Visibility 9 miles    
Events Rain    
T = Trace of Precipitation, MM = Missing Value Source: NWS Daily Summary

Daily Weather History Graph

Daily Weather History Graph

Search for Another Location

Airport or City:

Trip Planner

Search our weather history database for the weather conditions in past years. The results will help you decide how hot, cold, wet, or windy it might be!

Date:

Astronomy

Dec. 28, 2013 Rise Set
Actual Time 7:23 AM EST 5:38 PM EST
Civil Twilight 6:56 AM EST 6:04 PM EST
Nautical Twilight 6:27 AM EST 6:34 PM EST
Astronomical Twilight 5:58 AM EST 7:03 PM EST
Moon 3:08 AM EST (12/28) 2:20 PM EST (12/28)
Length of Visible Light 11h 07m
Length of Day
10h 15m
Waning Crescent, 19% of the Moon is Illuminated
Dec 28
Waning Crescent
Jan 1
New
Jan 7
First Quarter
Jan 15
Full
Jan 24
Last Quarter

Hourly Weather History & Observations

Time (EST) Temp. Dew Point Humidity Pressure Visibility Wind Dir Wind Speed Gust Speed Precip Events Conditions
12:53 AM 55.9 °F 48.9 °F 77% 30.29 in 10.0 mi NE 8.1 mph - N/A   Overcast
1:39 AM 55.9 °F 48.9 °F 77% 30.26 in 10.0 mi NE 9.2 mph - N/A   Overcast
1:53 AM 55.9 °F 48.9 °F 77% 30.27 in 10.0 mi NNE 6.9 mph - N/A   Overcast
2:02 AM 55.9 °F 48.9 °F 77% 30.27 in 10.0 mi NNE 6.9 mph - N/A   Overcast
2:53 AM 55.0 °F 48.9 °F 80% 30.25 in 10.0 mi NNE 6.9 mph - N/A   Partly Cloudy
3:53 AM 53.1 °F 48.0 °F 83% 30.24 in 10.0 mi NNE 6.9 mph - N/A   Clear
4:30 AM 54.0 °F 48.9 °F 83% 30.24 in 10.0 mi NE 5.8 mph - N/A   Mostly Cloudy
4:53 AM 54.0 °F 48.9 °F 83% 30.22 in 10.0 mi NE 6.9 mph - N/A   Mostly Cloudy
5:04 AM 54.0 °F 48.9 °F 83% 30.21 in 10.0 mi NNE 10.4 mph - N/A   Scattered Clouds
5:53 AM 54.0 °F 48.9 °F 83% 30.22 in 10.0 mi NE 6.9 mph - N/A   Partly Cloudy
6:22 AM 55.0 °F 50.0 °F 83% 30.21 in 10.0 mi NE 8.1 mph - N/A   Mostly Cloudy
6:53 AM 55.9 °F 51.1 °F 84% 30.23 in 10.0 mi ENE 5.8 mph - N/A   Overcast
7:07 AM 55.9 °F 52.0 °F 87% 30.22 in 10.0 mi NE 8.1 mph - N/A   Overcast
7:27 AM 57.0 °F 52.0 °F 83% 30.22 in 10.0 mi NE 8.1 mph - N/A   Overcast
7:53 AM 57.9 °F 53.1 °F 84% 30.23 in 10.0 mi NE 6.9 mph - N/A   Overcast
8:28 AM 59.0 °F 54.0 °F 83% 30.23 in 10.0 mi NE 9.2 mph - N/A   Overcast
8:53 AM 60.1 °F 55.0 °F 83% 30.24 in 10.0 mi ENE 8.1 mph - N/A   Overcast
9:53 AM 62.1 °F 57.9 °F 86% 30.26 in 8.0 mi East 6.9 mph - 0.00 in   Overcast
10:02 AM 62.1 °F 57.9 °F 86% 30.26 in 2.5 mi ESE 5.8 mph - 0.00 in Rain Light Rain
10:53 AM 63.0 °F 61.0 °F 93% 30.24 in 2.5 mi NE 8.1 mph - 0.00 in Rain Light Rain
11:00 AM 63.0 °F 62.1 °F 97% 30.23 in 3.0 mi NE 8.1 mph - 0.00 in Rain Light Rain
11:53 AM 64.0 °F 63.0 °F 96% 30.20 in 8.0 mi ENE 6.9 mph - 0.00 in   Overcast
12:53 PM 66.9 °F 64.0 °F 90% 30.16 in 10.0 mi ENE 10.4 mph - N/A   Overcast
1:53 PM 69.1 °F 64.9 °F 87% 30.11 in 10.0 mi ENE 9.2 mph - N/A   Overcast
2:31 PM 71.1 °F 66.0 °F 84% 30.10 in 10.0 mi East 10.4 mph - N/A   Overcast
2:53 PM 71.1 °F 66.0 °F 84% 30.09 in 10.0 mi ENE 6.9 mph - N/A   Overcast
3:44 PM 72.0 °F 66.9 °F 84% 30.09 in 10.0 mi East 8.1 mph - N/A   Overcast
3:53 PM 72.0 °F 66.9 °F 84% 30.08 in 9.0 mi East 9.2 mph - N/A   Overcast
4:09 PM 70.0 °F 66.9 °F 90% 30.08 in 1.8 mi East 9.2 mph - 0.00 in Rain Rain
4:21 PM 69.1 °F 68.0 °F 96% 30.09 in 3.0 mi SE 12.7 mph - 0.01 in Rain Light Rain
4:39 PM 69.1 °F 68.0 °F 96% 30.09 in 10.0 mi ESE 5.8 mph - 0.01 in   Overcast
4:53 PM 69.1 °F 68.0 °F 96% 30.09 in 10.0 mi East 5.8 mph - 0.01 in   Mostly Cloudy
5:43 PM 69.1 °F 66.9 °F 93% 30.09 in 10.0 mi SE 3.5 mph - N/A   Overcast
5:53 PM 68.0 °F 66.9 °F 96% 30.08 in 10.0 mi ESE 4.6 mph - N/A   Overcast
6:53 PM 66.9 °F 66.0 °F 97% 30.06 in 10.0 mi East 6.9 mph - N/A   Scattered Clouds
7:31 PM 66.9 °F 64.9 °F 93% 30.08 in 10.0 mi ESE 6.9 mph - N/A   Mostly Cloudy
7:50 PM 66.2 °F 66.2 °F 100% 30.07 in 10.0 mi ESE 8.1 mph - N/A   Overcast
7:53 PM 66.9 °F 66.0 °F 97% 30.07 in 10.0 mi ESE 8.1 mph - N/A   Overcast
8:53 PM 66.9 °F 66.0 °F 97% 30.05 in 9.0 mi ESE 8.1 mph - N/A   Overcast
9:51 PM 66.2 °F 66.2 °F 100% 30.04 in 9.0 mi SE 8.1 mph - N/A   Overcast
9:53 PM 66.9 °F 66.0 °F 97% 30.04 in 9.0 mi SE 8.1 mph - N/A   Overcast
10:53 PM 66.9 °F 66.0 °F 97% 30.00 in 10.0 mi SE 11.5 mph - N/A   Clear
11:53 PM 68.0 °F 66.0 °F 93% 30.01 in 10.0 mi SSE 15.0 mph - N/A   Mostly Cloudy